Regional Weather Roundup
Issued by NWS

Home | Current Version | Previous Version | Graphics & Text | Print | Product List | Glossary On
Versions: 1 2 3 4 5 6 7 8 9 10 11 12 13 14 15 16 17 18 19 20 21 22 23 24 25 26 27 28 29 30 31 32 33 34 35 36 37 38 39 40 41 42 43 44 45 46 47 48 49 50
000
ASUS43 KLOT 301512
RWRIL

ILLINOIS REGIONAL WEATHER ROUNDUP
NATIONAL WEATHER SERVICE CHICAGO/ROMEOVILLE IL
1000 AM CDT SUN AUG 30 2015

NOTE: "FAIR" INDICATES FEW OR NO CLOUDS BELOW 12,000 FEET WITH NO
SIGNIFICANT WEATHER AND/OR OBSTRUCTIONS TO VISIBILITY.

* THESE STATIONS ARE NOT UNDER NWS QUALITY CONTROL. THEY ALSO MAY NOT
  REPORT WEATHER SUCH AS PRECIPITATION OR FOG.

ILZ001-002-007-009-015-016-024-301600-
NORTHWEST ILLINOIS

CITY           SKY/WX    TMP DP  RH WIND       PRES   REMARKS
MOLINE         CLOUDY    65  63  93 VRB5      30.09R FOG
STERLING*        N/A    N/A N/A N/A MISG        N/A
SAVANNA*       PTSUNNY   72  62  70 CALM      30.09R
$$

ILZ003-004-008-010-011-017-018-301600-
NORTH CENTRAL ILLINOIS

CITY           SKY/WX    TMP DP  RH WIND       PRES   REMARKS
ROCKFORD       CLOUDY    69  63  81 E5        30.10S
FREEPORT*      CLOUDY    66  60  79 E6        30.11S
ROCHELLE*      CLOUDY    67  63  86 CALM      30.10S
DE KALB*       CLOUDY    68  63  82 CALM      30.10S
PERU*          CLOUDY    66  65  98 E3        30.09S FOG
$$

ILZ005-006-012>014-019>023-301600-
NORTHEAST ILLINOIS

CITY           SKY/WX    TMP DP  RH WIND       PRES   REMARKS
CHICAGO-OHARE  CLOUDY    69  64  84 NE7       30.08R HAZE
CHICAGO-MIDWAY CLOUDY    70  63  78 CALM      30.08R
AURORA         CLOUDY    69  64  84 N6        30.09S
LANSING*       CLOUDY    68  64  89 CALM      30.09R FOG
JOLIET*        CLOUDY    71  65  84 NE3       30.09R
WAUKEGAN       CLOUDY    65  64  97 N6        30.08S FOG
DUPAGE AIRPORT CLOUDY    69  62  78 N5        30.08S
KANKAKEE*      CLOUDY    69  67  96 NE5       30.09R FOG
WHEELING       CLOUDY    67  63  87 NE5       30.10R
MORRIS*        CLOUDY    68  65  89 E5        30.08R
ROMEOVILLE*    CLOUDY    68  64  86 NE3       30.09R FOG
NORTHERLY ISL    N/A     66  64  93 MISG        N/A
$$

LMZ740>746-301600-
SOUTHERN LAKE MICHIGAN

STATION/POSITION SKY/WX   TEMP    WIND        PRES    VSBY  WAVE
                          AIR SEA DIR/SP/G                  HT/PER
                          (F)     (DEG/KT/KT) (MB)    (MI)  (FT/S)
SOUTHERN BUOY              66 68  350/ 10/ 12 1018.1R         1
WILMETTE HARBOR            60 59  150/  4/  6   N/A           1/ 3
HARRISON CRIB              63     330/  6/  7   N/A
BURNHAM HARBOR             66      20/  6/  7   N/A
BURNS HARBOR               68     320/  3/  4 1019.0R
MICHIGAN CITY              71     280/  2/  3   N/A
MICHIGAN CITY 6N           69 71  330/  4/  6   N/A           1/ 3
ST. JOSEPH                 69 71  300/  4/  4   N/A           1
$$

ILZ025>027-034>036-040-047-049-050-058-095>099-301600-
WEST-CENTRAL ILLINOIS

CITY           SKY/WX    TMP DP  RH WIND       PRES   REMARKS
QUINCY         CLOUDY    72  69  90 E5        30.07S FOG
GALESBURG*     CLOUDY    67  66  98 NE3       30.09S FOG
MACOMB*        CLOUDY    69  69 100 CALM      30.10R FOG
JACKSONVILLE*  PTSUNNY   77  71  82 CALM      30.07R
PITTSFIELD*    CLOUDY    72  71  95 CALM      30.08S FOG
$$

ILZ028>032-037-038-041>044-048-051>054-059>061-301600-
CENTRAL ILLINOIS

CITY           SKY/WX    TMP DP  RH WIND       PRES   REMARKS
PONTIAC        FOG       70  69  99 E3        30.09R VSB 1
BLOOMINGTON    FOG       70  70 100 NE5       30.10R VSB 1/2
DECATUR        MOSUNNY   76  68  76 CALM      30.07S
PEORIA         CLOUDY    71  67  87 NE6       30.08R FOG
LACON*         CLOUDY    66  65  97 CALM      30.08R FOG
LINCOLN*       SUNNY     77  68  74 CALM      30.07R
SPRINGFIELD    PTSUNNY   77  70  79 CALM      30.07R
TAYLORVILLE    SUNNY     77  68  73 SW5       30.07S
$$

ILZ033-039-045-046-055>057-062-063-301600-
EAST-CENTRAL ILLINOIS

CITY           SKY/WX    TMP DP  RH WIND       PRES   REMARKS
CHAMPAIGN      CLOUDY    73  67  81 S5        30.08R
RANTOUL*       CLOUDY    73  69  88 CALM      30.08R
MATTOON        MOSUNNY   75  64  68 SW6       30.08S
PARIS*         CLOUDY    74  67  78 SW8       30.10R
$$

ILZ079-100>102-301600-
SOUTHWEST ILLINOIS

CITY           SKY/WX    TMP DP  RH WIND       PRES   REMARKS
ALTON          SUNNY     75  68  78 SW6       30.07R
BELLEVILLE     SUNNY     78  71  81 VRB1      30.06R
CAHOKIA*       MOSUNNY   77  67  71 CALM      30.06S
SPARTA*        PTSUNNY   74  68  81 SW3       30.09R
$$

ILZ064>066-069>071-074>076-080>082-084>086-088>090-092>094-301600-
SOUTH-CENTRAL ILLINOIS

CITY           SKY/WX    TMP DP  RH WIND       PRES   REMARKS
CARBONDALE     CLOUDY    75  69  81 S6        30.08R
CAIRO*         CLOUDY    73  73 100 SE6       30.08S
EFFINGHAM*     PTSUNNY   76  64  66 S6        30.10R
MARION         CLOUDY    77  72  83 S9        30.10R
MT. VERNON     MOSUNNY   75  66  73 S7        30.10R
SALEM*         CLOUDY    77  68  73 S7        30.09R
METROPOLIS*    CLOUDY    74  72  96 CALM      30.10R
$$

ILZ067-068-072-073-078-083-087-091-301600-
SOUTHEAST ILLINOIS

CITY           SKY/WX    TMP DP  RH WIND       PRES   REMARKS
LAWRENCEVILLE  MOSUNNY   80  68  66 S7        30.10R HX  83
FLORA*         MOSUNNY   75  66  72 S5        30.09S
FAIRFIELD*     CLOUDY    74  70  87 CALM      30.08R
HARRISBURG*    CLOUDY    73  70  92 CALM      30.09S
ROBINSON*      CLOUDY    78  67  68 SW9       30.10R HX  80
CARMI*         CLOUDY    75  73  93 S8        30.08S
$$

ABBREVIATIONS USED IN REMARKS
   TC - TEMPERATURE IN CELSIUS
  WCI - WIND CHILL INDEX
   HX - HEAT INDEX
  VSB - VISIBILITY
$$




USA.gov is the U.S. government's official web portal to all federal, state and local government web resources and services.